Time,TemperatureF,DewpointF,PressureIn,WindDirection,WindDirectionDegrees,WindSpeedMPH,WindSpeedGustMPH,Humidity,HourlyPrecipIn,Conditions,Clouds,dailyrainin,SoftwareType,DateUTC
2013-05-10 00:22:00,62.0,58.0,30.07,North,0,0.0,-999.0,88,0.00,,,-99.99,,2013-05-10 07:22:00,
2013-05-10 00:31:00,62.0,58.0,30.07,North,0,0.0,-999.0,88,0.00,,,-99.99,,2013-05-10 07:31:00,
2013-05-10 00:42:00,62.0,58.0,30.07,North,0,0.0,-999.0,88,0.00,,,-99.99,,2013-05-10 07:42:00,
2013-05-10 01:21:00,62.0,59.0,30.07,North,0,0.0,-999.0,89,0.00,,,-99.99,,2013-05-10 08:21:00,
2013-05-10 01:32:00,62.0,59.0,30.07,North,0,0.0,-999.0,89,0.00,,,-99.99,,2013-05-10 08:32:00,
2013-05-10 01:42:00,62.0,59.0,30.07,North,0,0.0,-999.0,89,0.00,,,-99.99,,2013-05-10 08:42:00,
2013-05-10 02:21:00,62.0,58.0,30.06,North,0,0.0,-999.0,87,0.00,,,-99.99,,2013-05-10 09:21:00,
2013-05-10 02:32:00,62.0,58.0,30.06,North,0,0.0,-999.0,87,0.00,,,-99.99,,2013-05-10 09:32:00,
2013-05-10 02:42:00,62.0,58.0,30.06,North,0,0.0,-999.0,87,0.00,,,-99.99,,2013-05-10 09:42:00,
2013-05-10 03:23:00,60.0,56.0,30.06,NE,50,4.0,-999.0,87,0.00,,,-99.99,,2013-05-10 10:23:00,
2013-05-10 03:32:00,60.0,56.0,30.06,NE,50,4.0,-999.0,87,0.00,,,-99.99,,2013-05-10 10:32:00,
2013-05-10 03:42:00,60.0,56.0,30.06,NE,50,4.0,-999.0,87,0.00,,,-99.99,,2013-05-10 10:42:00,
2013-05-10 04:21:00,60.0,57.0,30.05,North,10,4.0,-999.0,89,0.00,,,-99.99,,2013-05-10 11:21:00,
2013-05-10 04:32:00,60.0,57.0,30.05,North,10,4.0,-999.0,89,0.00,,,-99.99,,2013-05-10 11:32:00,
2013-05-10 04:42:00,60.0,57.0,30.05,North,10,4.0,-999.0,89,0.00,,,-99.99,,2013-05-10 11:42:00,
2013-05-10 05:21:00,60.0,57.0,30.05,North,10,9.0,-999.0,89,0.00,,,-99.99,,2013-05-10 12:21:00,
2013-05-10 05:32:00,60.0,57.0,30.05,North,10,9.0,-999.0,89,0.00,,,-99.99,,2013-05-10 12:32:00,
2013-05-10 05:42:00,60.0,57.0,30.05,North,10,9.0,-999.0,89,0.00,,,-99.99,,2013-05-10 12:42:00,
2013-05-10 06:21:00,60.0,56.0,30.05,North,0,0.0,-999.0,88,0.00,,,-99.99,,2013-05-10 13:21:00,
2013-05-10 06:32:00,60.0,56.0,30.05,North,0,0.0,-999.0,88,0.00,,,-99.99,,2013-05-10 13:32:00,
2013-05-10 06:41:00,60.0,56.0,30.05,North,0,0.0,-999.0,88,0.00,,,-99.99,,2013-05-10 13:41:00,
2013-05-10 07:21:00,60.0,56.0,30.06,North,0,0.0,-999.0,88,0.00,,,-99.99,,2013-05-10 14:21:00,
2013-05-10 07:32:00,60.0,56.0,30.06,North,0,0.0,-999.0,88,0.00,,,-99.99,,2013-05-10 14:32:00,
2013-05-10 07:41:00,60.0,56.0,30.06,North,0,0.0,-999.0,88,0.00,,,-99.99,,2013-05-10 14:41:00,
2013-05-10 08:21:00,63.0,58.0,30.07,North,360,3.0,-999.0,84,0.00,,,-99.99,,2013-05-10 15:21:00,
2013-05-10 08:32:00,63.0,58.0,30.07,North,360,3.0,-999.0,84,0.00,,,-99.99,,2013-05-10 15:32:00,
2013-05-10 08:42:00,63.0,58.0,30.07,North,360,3.0,-999.0,84,0.00,,,-99.99,,2013-05-10 15:42:00,
2013-05-10 09:23:00,65.0,59.0,30.07,North,360,2.0,-999.0,82,0.00,,,-99.99,,2013-05-10 16:23:00,
2013-05-10 09:32:00,65.0,59.0,30.07,North,360,2.0,-999.0,82,0.00,,,-99.99,,2013-05-10 16:32:00,
2013-05-10 09:42:00,65.0,59.0,30.07,North,360,2.0,-999.0,82,0.00,,,-99.99,,2013-05-10 16:42:00,
2013-05-10 11:21:00,67.0,61.0,30.08,SSW,210,4.0,-999.0,82,0.00,,,-99.99,,2013-05-10 18:21:00,
2013-05-10 11:34:00,67.0,61.0,30.08,SSW,210,4.0,-999.0,82,0.00,,,-99.99,,2013-05-10 18:34:00,
2013-05-10 11:43:00,67.0,61.0,30.08,SSW,210,4.0,-999.0,82,0.00,,,-99.99,,2013-05-10 18:43:00,
2013-05-10 12:21:00,68.0,61.0,30.08,East,80,2.0,-999.0,78,0.00,,,-99.99,,2013-05-10 19:21:00,
2013-05-10 12:32:00,68.0,61.0,30.08,East,80,2.0,-999.0,78,0.00,,,-99.99,,2013-05-10 19:32:00,
2013-05-10 12:42:00,68.0,61.0,30.08,East,80,2.0,-999.0,78,0.00,,,-99.99,,2013-05-10 19:42:00,
2013-05-10 13:21:00,68.0,61.0,30.06,SSE,150,6.0,-999.0,77,0.00,,,-99.99,,2013-05-10 20:21:00,
2013-05-10 13:32:00,68.0,61.0,30.06,SSE,150,6.0,-999.0,77,0.00,,,-99.99,,2013-05-10 20:32:00,
2013-05-10 13:41:00,68.0,61.0,30.06,SSE,150,6.0,-999.0,77,0.00,,,-99.99,,2013-05-10 20:41:00,
2013-05-10 14:24:00,69.0,61.0,30.04,ESE,110,4.0,-999.0,77,0.00,,,-99.99,,2013-05-10 21:24:00,
2013-05-10 14:32:00,69.0,61.0,30.04,ESE,110,4.0,-999.0,77,0.00,,,-99.99,,2013-05-10 21:32:00,
2013-05-10 14:43:00,69.0,61.0,30.04,ESE,110,4.0,-999.0,77,0.00,,,-99.99,,2013-05-10 21:43:00,
2013-05-10 15:22:00,69.0,61.0,30.03,NE,50,5.0,-999.0,77,0.00,,,-99.99,,2013-05-10 22:22:00,
2013-05-10 15:32:00,69.0,61.0,30.03,NE,50,5.0,-999.0,77,0.00,,,-99.99,,2013-05-10 22:32:00,
2013-05-10 15:42:00,69.0,61.0,30.03,NE,50,5.0,-999.0,77,0.00,,,-99.99,,2013-05-10 22:42:00,
2013-05-10 16:22:00,69.0,63.0,30.01,ESE,110,3.0,-999.0,80,0.00,,,-99.99,,2013-05-10 23:22:00,
2013-05-10 16:32:00,69.0,63.0,30.01,ESE,110,3.0,-999.0,80,0.00,,,-99.99,,2013-05-10 23:32:00,
2013-05-10 16:41:00,69.0,63.0,30.01,ESE,110,3.0,-999.0,80,0.00,,,-99.99,,2013-05-10 23:41:00,
2013-05-10 17:21:00,68.0,62.0,30.01,North,10,3.0,-999.0,81,0.00,,,-99.99,,2013-05-11 00:21:00,
2013-05-10 17:32:00,68.0,62.0,30.01,North,10,3.0,-999.0,81,0.00,,,-99.99,,2013-05-11 00:32:00,
2013-05-10 17:42:00,68.0,62.0,30.01,North,10,3.0,-999.0,81,0.00,,,-99.99,,2013-05-11 00:42:00,
2013-05-10 18:21:00,67.0,62.0,30.00,North,360,5.0,-999.0,84,0.00,,,-99.99,,2013-05-11 01:21:00,
2013-05-10 18:31:00,67.0,62.0,30.00,North,360,5.0,-999.0,84,0.00,,,-99.99,,2013-05-11 01:31:00,
2013-05-10 18:42:00,67.0,62.0,30.00,North,360,5.0,-999.0,84,0.00,,,-99.99,,2013-05-11 01:42:00,
2013-05-10 19:21:00,65.0,61.0,30.01,West,270,4.0,-999.0,87,0.00,,,-99.99,,2013-05-11 02:21:00,
2013-05-10 19:32:00,65.0,61.0,30.01,West,270,4.0,-999.0,87,0.00,,,-99.99,,2013-05-11 02:32:00,
2013-05-10 19:42:00,65.0,61.0,30.01,West,270,4.0,-999.0,87,0.00,,,-99.99,,2013-05-11 02:42:00,
2013-05-10 20:21:00,65.0,62.0,30.02,SSW,210,4.0,-999.0,89,0.00,,,-99.99,,2013-05-11 03:21:00,
2013-05-10 20:32:00,65.0,62.0,30.02,SSW,210,4.0,-999.0,89,0.00,,,-99.99,,2013-05-11 03:32:00,
2013-05-10 20:42:00,65.0,62.0,30.02,SSW,210,4.0,-999.0,89,0.00,,,-99.99,,2013-05-11 03:42:00,
2013-05-10 21:23:00,64.0,61.0,30.05,North,0,0.0,-999.0,90,0.00,,,-99.99,,2013-05-11 04:23:00,
2013-05-10 21:33:00,64.0,61.0,30.05,North,0,0.0,-999.0,90,0.00,,,-99.99,,2013-05-11 04:33:00,
2013-05-10 21:43:00,64.0,61.0,30.05,North,0,0.0,-999.0,90,0.00,,,-99.99,,2013-05-11 04:43:00,
2013-05-10 22:21:00,64.0,61.0,30.06,North,0,0.0,-999.0,91,0.00,,,-99.99,,2013-05-11 05:21:00,
2013-05-10 22:32:00,64.0,61.0,30.06,North,0,0.0,-999.0,91,0.00,,,-99.99,,2013-05-11 05:32:00,
2013-05-10 22:42:00,64.0,61.0,30.06,North,0,0.0,-999.0,91,0.00,,,-99.99,,2013-05-11 05:42:00,
2013-05-10 23:21:00,63.0,61.0,30.06,North,0,0.0,-999.0,92,0.00,,,-99.99,,2013-05-11 06:21:00,
2013-05-10 23:32:00,63.0,61.0,30.06,North,0,0.0,-999.0,92,0.00,,,-99.99,,2013-05-11 06:32:00,
2013-05-10 23:42:00,63.0,61.0,30.06,North,0,0.0,-999.0,92,0.00,,,-99.99,,2013-05-11 06:42:00,